NINGXIA-1 4

Satellite information

Favourite Embed

Satellite Type and Status

PAYLOADIN ORBIT

Key statistics

Satellite NINGXIA-1 4 at a glance.

Uptime

2123

Days in orbit

Revolutions

≈ 14.0

Per day

Orbit

LEO

Low Earth Orbit

Inclination

45.0

Latest

Satellite identification and parameters

Extended collection of information and parameters for NINGXIA-1 4.

Object identification

Identified? True

Debris? False

Object name: NINGXIA-1 4

International designator: 2019-076D

Object number (NORAD): 44782

Object ID (CCSDS): 44782

Country: PEOPLES REPUBLIC OF CHINA (PRC)

Current information (Y/N): Y

RCS size: MEDIUM

Orbital parameters

Period: 102.713 minutes

Inclination: 45.0099 deg

SMA: 7265.127 km

Apoapsis: 896.703 km

Periapsis: 877.281 km

RAAN: 21.6893 deg

Eccentricy: 0.00133666

Argument of periapsis: 208.0051 deg

Mean anomaly: 152.0065 deg

Mean motion: 14.01967607 rev/day

Mean motion (dot): 0.00000066 rev/day2

B* drag term: 0.00012768535 1/REarth

Two-line elements (TLE)

Creation date: Sept. 3, 2025, 10:15 a.m.

Reference frame: TEME

Reference center: EARTH

Epoch: Sept. 3, 2025, 7:39 a.m. UTC

TLE line 0: 0 NINGXIA-1 4

TLE line 1: 1 44782U 19076D 25246.31890486 .00000066 00000-0 12769-3 0 9996

TLE line 2: 2 44782 45.0099 21.6893 0013367 208.0051 152.0065 14.01967607297568

Live tracking on map

Real-time ground track for satellite NINGXIA-1 4.

In-orbit conjunctions

There are no conjunctions computed for NINGXIA-1 4, at the moment. Check back to stay up to date, as we update our databases every day.

Go to all conjunctions

Associated space launch

Ningxia 1 is a constellation of remote sensing satellites developed by Dongfanghong Satellite Co., Ltd.

NINGXIA-1 4 was lifted into orbit during the mission ‘Long March 6 | Ningxia 1 (x5)’, on board a Long March 6 space rocket.

The launch took place on Nov. 13, 2019, 6:35 a.m. from Launch Complex 16.

For more information about the launch, click the button.

Launch to space Long March 6 | Ningxia 1 (x5)
Long March 6 | Ningxia 1 (x5)

Agency: N/A

Status: Launch Successful

Launch date: Nov. 13, 2019, 6:35 a.m. UTC

Rocket: Long March 6

Launch pad: Launch Complex 16

Location: Taiyuan Satellite Launch Center, People's Republic of China

...

Latest news about this satellite

News about space launch
Long March 6 lofts five Ningxia-1 satellites

News about space launch
Two Chinese satellite launchers lift off three hours apart


Newsletter sign-up

Weekly statistics, charts and insights to help you stay on top of the space industry.